San Luis Obispo, CA

4:23 AM PST on November 15, 2019 (GMT -0800)
San Luis Obispo County-McChesney

Weather History for KSBP - October, 2019

Change the Weather History Date:

Tuesday, October 22, 2019

  Actual Average Record
Temperature  
Mean Temperature 76 °F -  
Max Temperature 96 °F 72 °F 99 °F (1965)
Min Temperature 55 °F 49 °F 39 °F (1996)
Cooling Degree Days 10    
Growing Degree Days 26 (Base 50)    
Moisture  
Dew Point 41 °F    
Average Humidity 35    
Maximum Humidity 57    
Minimum Humidity 12    
Precipitation  
Precipitation 0.00 in - - ()
Sea Level Pressure  
Sea Level Pressure 30.04 in    
Wind  
Wind Speed 4 mph (NE)    
Max Wind Speed 18 mph    
Max Gust Speed -    
Visibility 10 miles    
Events      
Averages and records for this station are not official NWS values.
T = Trace of Precipitation, MM = Missing Value Source: NWS Daily Summary

Daily Weather History Graph

Daily Weather History Graph

Search for Another Location

Airport or City:

Astronomy

Oct. 22, 2019 Rise Set
Actual Time 7:14 AM PDT 6:18 PM PDT
Civil Twilight 6:48 AM PDT 6:44 PM PDT
Nautical Twilight 6:19 AM PDT 7:14 PM PDT
Astronomical Twilight 5:49 AM PDT 7:43 PM PDT
Moon 12:48 AM PDT (10/22) 3:15 PM PDT (10/22)
Length of Visible Light 11h 55m
Length of Day
11h 04m
Last Quarter, 36% of the Moon is Illuminated
Oct 22
Last Quarter
Oct 27
New
Nov 4
First Quarter
Nov 12
Full
Nov 19
Last Quarter

Hourly Weather History & Observations

Time (PDT) Temp. Dew Point Humidity Pressure Visibility Wind Dir Wind Speed Gust Speed Precip Events Conditions
12:56 AM 64.9 °F 41.0 °F 42% 30.08 in 10.0 mi Calm Calm - N/A   Clear
1:56 AM 63.0 °F 41.0 °F 45% 30.09 in 10.0 mi Calm Calm - N/A   Clear
2:56 AM 60.1 °F 41.0 °F 49% 30.08 in 10.0 mi ESE 3.5 mph - N/A   Clear
3:56 AM 59.0 °F 41.0 °F 51% 30.06 in 10.0 mi East 5.8 mph - N/A   Clear
4:56 AM 57.9 °F 41.0 °F 53% 30.07 in 10.0 mi East 5.8 mph - N/A   Clear
5:56 AM 57.9 °F 42.1 °F 56% 30.08 in 10.0 mi East 5.8 mph - N/A   Clear
6:56 AM 55.9 °F 41.0 °F 57% 30.09 in 10.0 mi ESE 5.8 mph - N/A   Clear
7:56 AM 59.0 °F 42.1 °F 53% 30.10 in 10.0 mi East 5.8 mph - N/A   Clear
8:56 AM 69.1 °F 43.0 °F 39% 30.12 in 10.0 mi Calm Calm - N/A   Clear
9:56 AM 77.0 °F 43.0 °F 30% 30.11 in 10.0 mi Calm Calm - N/A   Clear
10:56 AM 84.9 °F 41.0 °F 21% 30.09 in 10.0 mi Calm Calm - N/A   Clear
11:56 AM 91.0 °F 39.9 °F 17% 30.07 in 10.0 mi West 4.6 mph - N/A   Clear
12:56 PM 93.0 °F 39.9 °F 16% 30.04 in 10.0 mi NW 9.2 mph - N/A   Clear
1:56 PM 95.0 °F 39.0 °F 14% 30.01 in 10.0 mi NW 13.8 mph - N/A   Clear
2:56 PM 96.1 °F 36.0 °F 12% 29.99 in 10.0 mi Variable 6.9 mph - N/A   Clear
3:56 PM 86.0 °F 42.1 °F 21% 29.98 in 10.0 mi NW 17.3 mph - N/A   Clear
4:56 PM 82.0 °F 39.9 °F 22% 29.98 in 10.0 mi NW 18.4 mph - N/A   Clear
5:56 PM 79.0 °F 37.9 °F 23% 29.97 in 10.0 mi NNW 12.7 mph - N/A   Clear
6:56 PM 75.0 °F 37.9 °F 26% 29.97 in 10.0 mi NW 9.2 mph - N/A   Clear
7:56 PM 70.0 °F 39.0 °F 32% 29.98 in 10.0 mi SSE 3.5 mph - N/A   Clear
8:56 PM 68.0 °F 41.0 °F 37% 29.99 in 10.0 mi Variable 3.5 mph - N/A   Clear
9:56 PM 66.9 °F 41.0 °F 39% 29.99 in 10.0 mi Calm Calm - N/A   Clear
10:56 PM 63.0 °F 41.0 °F 45% 30.00 in 10.0 mi ESE 3.5 mph - N/A   Clear
11:56 PM 66.0 °F 42.1 °F 42% 29.99 in 10.0 mi Calm Calm - N/A   Clear